Starlink 32637

operational
NORAD ID: 62032 Int'l Des: 2024-216 Owner: SPXS Country: US Constellation: starlink
LEOCIRCULAR

Über Starlink 32637

Beschreibung wird geladen...

Live-Position

3D-Globus wird geladen...

Nächste Überflüge

Höhenverlauf

Altitude vs Time

uPlot chart will show altitude changes over time

Zweizeiliger Elementsatz

1 62032U 24216A 25260.11124798 .00016740 00000-0 61716-3 0 9998
2 62032 43.0019 156.2090 0001481 236.7679 123.3031 15.27542898 47330
Epoch: 17. Sept. 2025 • Age: 9 hours

Aktueller Status

Höhe 482.1 km
Geschwindigkeit 7.63 km/s
Subsatellitenpunkt 3.22°N, 164.9°E
Startdatum 21. Nov. 2024
Alter 0.8 years
Typ internet

Technische Details

Klassifizierung Payload
Masse 730.00 kg
Trockenmasse 700.00 kg
Gesamtmasse 730.00 kg
Länge 0.30 m
Durchmesser 4.10 m
Spannweite 29.00 m
Form Box + pan
Hersteller SPXS
Bus-Typ Starlink V2M
Phasenstatus In Orbit
Besitzer/Staat SPXS/US

Große Konstellationen

Loading constellations...